This is the latest recevied weather packets stored in our database for station/object N2XP-2. If no packets are shown the sender has not sent any weather packets the latest 10 day(s).
| Time | Temp. | Humidity | Pressure | Rain* | Wind** | Luminosity | Snow |
|---|---|---|---|---|---|---|---|
| 1778043048 | 18.33° C | 78% | 1011.9 hPa | 0.51 mm | 1.34 m/s, 218° | - | - |
| 1778042981 | 18.33° C | 78% | 1011.9 hPa | 0.51 mm | 1.34 m/s, 218° | - | - |
| 1778042682 | 18.33° C | 78% | 1011.8 hPa | 1.78 mm | 0.89 m/s, 246° | - | - |
| 1778042380 | 18.33° C | 77% | 1011.9 hPa | 1.78 mm | 0.89 m/s, 208° | - | - |
| 1778042081 | 18.33° C | 77% | 1011.9 hPa | 1.78 mm | 0.45 m/s, 300° | - | - |
| 1778042060 | 18.89° C | 75% | 1011.8 hPa | 1.78 mm | 1.34 m/s, 238° | - | - |
| 1778042049 | 18.89° C | 75% | 1011.8 hPa | 1.78 mm | 1.34 m/s, 193° | - | - |
| 1778042045 | 18.89° C | 75% | 1011.8 hPa | 1.78 mm | 1.34 m/s, 188° | - | - |
| 1778041832 | 18.33° C | 77% | 1011.8 hPa | 1.78 mm | 2.24 m/s, 177° | - | - |
| 1778041782 | 18.33° C | 77% | 1011.8 hPa | 1.78 mm | 2.24 m/s, 177° | - | - |
| 1778041479 | 18.33° C | 76% | 1011.8 hPa | 1.78 mm | 2.24 m/s, 214° | - | - |
| 1778041212 | 18.89° C | 76% | 1011.8 hPa | 1.78 mm | 0.89 m/s, 208° | - | - |
| 1778041180 | 18.89° C | 76% | 1011.8 hPa | 1.78 mm | 0.89 m/s, 208° | - | - |
| 1778040880 | 18.89° C | 75% | 1011.8 hPa | 1.78 mm | 1.34 m/s, 238° | - | - |
| 1778040578 | 18.89° C | 75% | 1011.8 hPa | 1.78 mm | 1.34 m/s, 193° | - | - |
| 1778040278 | 18.89° C | 75% | 1011.8 hPa | 1.78 mm | 1.34 m/s, 188° | - | - |
| 1778040134 | 19.44° C | 73% | 1011.9 hPa | 0 mm | 1.79 m/s, 188° | - | - |
| 1778039979 | 18.89° C | 74% | 1011.8 hPa | 1.78 mm | 1.34 m/s, 211° | - | - |
| 1778039676 | 18.89° C | 74% | 1011.8 hPa | 1.78 mm | 2.68 m/s, 208° | - | - |
| 1778039377 | 18.89° C | 74% | 1011.8 hPa | 1.78 mm | 1.34 m/s, 153° | - | - |
| 1778039078 | 18.89° C | 74% | 1011.9 hPa | 0 mm | 0.89 m/s, 240° | - | - |
| 1778038775 | 19.44° C | 73% | 1011.9 hPa | 0 mm | 1.79 m/s, 188° | - | - |
| 1778038561 | 19.44° C | 73% | 1011.9 hPa | 0 mm | 1.79 m/s, 218° | - | - |
| 1778038560 | 19.44° C | 73% | 1011.9 hPa | 0 mm | 1.34 m/s, 176° | - | - |
| 1778038476 | 19.44° C | 73% | 1011.9 hPa | 0 mm | 1.79 m/s, 218° | - | - |
* Rain latest hour (hover to see other rain measurements)
** Current wind speed in m/s (hover to see current wind gust speed)